STARLINK-34216, 64337

Orbit data source: Space-Track

STARLINK-34216, 64337 is a payload satellite owned by SpaceX/Seattle (US) in LEO that was launched on Tue, 10 Jun 2025 UTC via an FALCON 9 launch vehicle from the Air Force Eastern Test Range (AFETR). Payload-class satellites include a variety of spacecraft equipped with specific instruments for various scientific and technological missions. These include communications satellites like Starlink; space stations such as the ISS; scientific satellites like the Hubble; Earth observation satellites from companies like Planet Labs, Umbra, and HawkEye 360; GPS; miniature CubeSats for education and research; and military/defense satellites.

Loading next visibility...
Identifier
64337, 2025-124W
Orbit
LEO
Country
Flag of USUS
Related business
Manufacturer
SpaceX/Seattle
Mission
Operational Commercial Communications
Bus & Motor
STARLINK V2MO, Unknown motor
Mass
575 kg wet, ~530 kg dry
Launch date (UTC)
2025-06-10 (9 months ago)
Launch vehicle
FALCON 9
Launch site
Air Force Eastern Test Range (AFETR)
Object type
Payload
Rocket body
Debris
Shape & HBR
Box + 2 Pan, 17.7 m
Radar Cross Section
36.964 m², Large (>1 m²)

Expand to show TLE details & history
Last TLE update: 10 hours ago

TLE from 10 hours ago
0 STARLINK-34216
1 64337U 25124W   26074.43812910  .00023235  00000-0  85045-3 0  9994
2 64337  43.0026  88.8880 0001749 247.0006 113.0661 15.27608658 42664
Epoch: 2026-03-15T10:30Z
TLE epoch observation values (Epoch: 2026-03-15T10:30:54.354Z)
Latitude
-0.00003°
Longitude
118.11654°
Altitude
483.209 km
Speed
7.625 km/s
True Right ascension
05h 55m 33s
True Declination
0° 00' 00"
Sunlit
Object was in daylight at epoch
Visualization orbit readout
Latitude
Unknown
Longitude
Unknown
Altitude
Unknown
Speed
Unknown
Apparent Right ascension
Unknown
Apparent Declination
Unknown
Sunlit
N/A
Visualization observer readout
Local Sidereal Time
01:17:12
Azimuth
Unknown
Elevation
Unknown
Doppler factor
Unknown
Orbital elements
Apogee altitude
486.108 km
Perigee altitude
483.708 km
Semi-major axis
6,863.045 km
Eccentricity
0.00017
Inclination
43.0026°
RAAN
88.888°
Arg. of periapsis
247.0006°
True anomaly
113.08454°
Mean anomaly
113.0661°
Eccentric anomaly
113.07532°
Mean motion
3.8174 °/min
Orbital period
94.3 mins
BSTAR
0.00085045
Loading maneuver chart data...
Computing Atmospheric mass density...
Loading historical data...
Loading historical data...
Loading historical data...
Loading historical data...
Loading historical data...
Loading historical data...
Loading historical data...

Documentation

Showing up to 5 results
|